owner,sensor,date,latitude,longitude,vertical_datum,wind_speed,wind_to_direction,wind_speed_of_gust,qcFlag 
TABS,ioos:station:wmo:42043:1,2005-07-01T00:00:00Z,28.9818,-94.9186,4.0,5.911218149,144.2936026,7.63,'11111222,11111222,11111222' 
TABS,ioos:station:wmo:42043:1,2005-07-01T00:30:00Z,28.9818,-94.9186,4.0,6.084159761,150.7810321,7.93,'11111222,11111222,11111222' 
TABS,ioos:station:wmo:42043:1,2005-07-01T01:00:00Z,28.9818,-94.9186,4.0,6.193585391,146.9260043,8.41,'11111222,11111222,11111222' 
TABS,ioos:station:wmo:42043:1,2005-07-01T01:30:00Z,28.9818,-94.9186,4.0,6.283183906,155.5563128,8.06,'11111222,11111222,11111222' 
TABS,ioos:station:wmo:42043:1,2005-07-01T02:00:00Z,28.9818,-94.9186,4.0,6.62707326,156.9946645,9.01,'11111222,11111222,11111222' 
TABS,ioos:station:wmo:42043:1,2005-07-01T02:30:00Z,28.9818,-94.9186,4.0,6.312162862,150.0640011,8.12,'11111222,11111222,11111222' 
TABS,ioos:station:wmo:42043:1,2005-07-01T03:00:00Z,28.9818,-94.9186,4.0,6.953740001,151.4818799,8.67,'11111222,11111222,11111222' 
TABS,ioos:station:wmo:42043:1,2005-07-01T03:30:00Z,28.9818,-94.9186,4.0,6.288592847,152.5387766,8.05,'11111222,11111222,11111222' 
TABS,ioos:station:wmo:42043:1,2005-07-01T04:00:00Z,28.9818,-94.9186,4.0,5.823443998,156.7370794,7.88,'11111222,11111222,11111222' 
TABS,ioos:station:wmo:42043:1,2005-07-01T04:30:00Z,28.9818,-94.9186,4.0,6.251735759,155.5259736,8.27,'11111222,11111222,11111222' 
TABS,ioos:station:wmo:42043:1,2005-07-01T05:00:00Z,28.9818,-94.9186,4.0,6.851955925,154.2205564,8.75,'11111222,11111222,11111222' 
TABS,ioos:station:wmo:42043:1,2005-07-01T05:30:00Z,28.9818,-94.9186,4.0,6.289077834,155.8805248,7.84,'11111222,11111222,11111222' 
TABS,ioos:station:wmo:42043:1,2005-07-01T06:00:00Z,28.9818,-94.9186,4.0,6.292352501,159.9237974,8.01,'11111222,11111222,11111222' 
TABS,ioos:station:wmo:42043:1,2005-07-01T06:30:00Z,28.9818,-94.9186,4.0,6.970394537,160.7334845,8.78,'11111222,11111222,11111222' 
TABS,ioos:station:wmo:42043:1,2005-07-01T07:00:00Z,28.9818,-94.9186,4.0,7.219480591,161.5904014,9.34,'11111222,11111222,11111222' 
TABS,ioos:station:wmo:42043:1,2005-07-01T07:30:00Z,28.9818,-94.9186,4.0,7.167126342,165.5374411,8.95,'11111222,11111222,11111222' 
TABS,ioos:station:wmo:42043:1,2005-07-01T08:00:00Z,28.9818,-94.9186,4.0,7.07350691,164.9227327,8.9,'11111222,11111222,11111222' 
TABS,ioos:station:wmo:42043:1,2005-07-01T08:30:00Z,28.9818,-94.9186,4.0,7.299342436,164.0979799,9.0,'11111222,11111222,11111222' 
TABS,ioos:station:wmo:42043:1,2005-07-01T09:00:00Z,28.9818,-94.9186,4.0,7.295382101,159.8762435,9.39,'11111222,11111222,11111222' 
TABS,ioos:station:wmo:42043:1,2005-07-01T09:30:00Z,28.9818,-94.9186,4.0,7.489225594,158.5398089,9.04,'11111222,11111222,11111222' 
TABS,ioos:station:wmo:42043:1,2005-07-01T10:00:00Z,28.9818,-94.9186,4.0,7.289204346,161.1924533,9.3,'11111222,11111222,11111222' 
TABS,ioos:station:wmo:42043:1,2005-07-01T10:30:00Z,28.9818,-94.9186,4.0,7.238121303,159.9630471,8.92,'11111222,11111222,11111222' 
TABS,ioos:station:wmo:42043:1,2005-07-01T11:00:00Z,28.9818,-94.9186,4.0,7.076849582,158.1838177,8.79,'11111222,11111222,11111222' 
TABS,ioos:station:wmo:42043:1,2005-07-01T11:30:00Z,28.9818,-94.9186,4.0,6.18886904,162.1215557,7.46,'11111222,11111222,11111222' 
TABS,ioos:station:wmo:42043:1,2005-07-01T12:00:00Z,28.9818,-94.9186,4.0,6.98140387,164.889086,8.81,'11111222,11111222,11111222' 
TABS,ioos:station:wmo:42043:1,2005-07-01T12:30:00Z,28.9818,-94.9186,4.0,6.407846752,165.7254501,8.01,'11111222,11111222,11111222' 
TABS,ioos:station:wmo:42043:1,2005-07-01T13:00:00Z,28.9818,-94.9186,4.0,5.875644645,168.6138083,7.28,'11111222,11111222,11111222' 
TABS,ioos:station:wmo:42043:1,2005-07-01T13:30:00Z,28.9818,-94.9186,4.0,5.611434754,174.9906774,7.06,'11111222,11111222,11111222' 
TABS,ioos:station:wmo:42043:1,2005-07-01T14:00:00Z,28.9818,-94.9186,4.0,5.528146163,176.8893771,6.86,'11111222,11111222,11111222' 
TABS,ioos:station:wmo:42043:1,2005-07-01T14:30:00Z,28.9818,-94.9186,4.0,5.230239,180.5479533,6.65,'11111222,11111222,11111222' 
TABS,ioos:station:wmo:42043:1,2005-07-01T15:00:00Z,28.9818,-94.9186,4.0,5.800310337,180.5929029,7.18,'11111222,11111222,11111222' 
TABS,ioos:station:wmo:42043:1,2005-07-01T15:30:00Z,28.9818,-94.9186,4.0,5.422075248,178.4149423,7.19,'11111222,11111222,11111222' 
TABS,ioos:station:wmo:42043:1,2005-07-01T16:00:00Z,28.9818,-94.9186,4.0,4.985228179,171.4637818,6.42,'11111222,11111222,11111222' 
TABS,ioos:station:wmo:42043:1,2005-07-01T16:30:00Z,28.9818,-94.9186,4.0,4.401090774,172.1647037,5.73,'11111222,11111222,11111222' 
TABS,ioos:station:wmo:42043:1,2005-07-01T17:00:00Z,28.9818,-94.9186,4.0,4.336865227,166.6689442,5.47,'11111222,11111222,11111222' 
TABS,ioos:station:wmo:42043:1,2005-07-01T17:30:00Z,28.9818,-94.9186,4.0,4.199059418,171.2333206,5.49,'11111222,11111222,11111222' 
TABS,ioos:station:wmo:42043:1,2005-07-01T18:00:00Z,28.9818,-94.9186,4.0,4.57377306,162.8330512,5.99,'11111222,11111222,11111222' 
TABS,ioos:station:wmo:42043:1,2005-07-01T18:30:00Z,28.9818,-94.9186,4.0,4.866754565,161.676992,6.23,'11111222,11111222,11111222' 
TABS,ioos:station:wmo:42043:1,2005-07-01T19:00:00Z,28.9818,-94.9186,4.0,4.838646505,166.2511936,6.44,'11111222,11111222,11111222' 
TABS,ioos:station:wmo:42043:1,2005-07-01T19:30:00Z,28.9818,-94.9186,4.0,5.333254166,162.9923033,6.97,'11111222,11111222,11111222' 
TABS,ioos:station:wmo:42043:1,2005-07-01T20:00:00Z,28.9818,-94.9186,4.0,5.407735201,157.6086018,7.41,'11111222,11111222,11111222' 
TABS,ioos:station:wmo:42043:1,2005-07-01T20:30:00Z,28.9818,-94.9186,4.0,5.061867244,156.7273608,6.44,'11111222,11111222,11111222' 
TABS,ioos:station:wmo:42043:1,2005-07-01T21:00:00Z,28.9818,-94.9186,4.0,5.250561875,154.0208464,7.11,'11111222,11111222,11111222' 
TABS,ioos:station:wmo:42043:1,2005-07-01T21:30:00Z,28.9818,-94.9186,4.0,5.074100906,165.3888716,6.98,'11111222,11111222,11111222' 
TABS,ioos:station:wmo:42043:1,2005-07-01T22:00:00Z,28.9818,-94.9186,4.0,5.31944546,165.0757664,7.61,'11111222,11111222,11111222' 
TABS,ioos:station:wmo:42043:1,2005-07-01T22:30:00Z,28.9818,-94.9186,4.0,5.804524098,160.160516,7.56,'11111222,11111222,11111222' 
TABS,ioos:station:wmo:42043:1,2005-07-01T23:00:00Z,28.9818,-94.9186,4.0,5.703691787,160.0085683,7.51,'11111222,11111222,11111222' 
TABS,ioos:station:wmo:42043:1,2005-07-01T23:30:00Z,28.9818,-94.9186,4.0,6.16060062,151.8129026,8.11,'11111222,11111222,11111222' 
TABS,ioos:station:wmo:42043:1,2005-07-02T00:00:00Z,28.9818,-94.9186,4.0,6.530666122,149.0365263,9.16,'11111222,11111222,11111222' 
TABS,ioos:station:wmo:42043:1,2005-07-02T00:30:00Z,28.9818,-94.9186,4.0,7.639378247,150.515874,9.79,'11111222,11111222,11111222' 
TABS,ioos:station:wmo:42043:1,2005-07-02T01:00:00Z,28.9818,-94.9186,4.0,7.574813529,150.1521972,9.84,'11111222,11111222,11111222' 
TABS,ioos:station:wmo:42043:1,2005-07-02T01:30:00Z,28.9818,-94.9186,4.0,7.323414504,149.6537389,9.74,'11111222,11111222,11111222' 
TABS,ioos:station:wmo:42043:1,2005-07-02T02:00:00Z,28.9818,-94.9186,4.0,7.663158618,149.7546078,9.68,'11111222,11111222,11111222' 
TABS,ioos:station:wmo:42043:1,2005-07-02T02:30:00Z,28.9818,-94.9186,4.0,7.52671243,153.7416123,9.78,'11111222,11111222,11111222' 
TABS,ioos:station:wmo:42043:1,2005-07-02T03:00:00Z,28.9818,-94.9186,4.0,7.957794921,151.1484775,10.43,'11111222,11111222,11111222' 
TABS,ioos:station:wmo:42043:1,2005-07-02T03:30:00Z,28.9818,-94.9186,4.0,8.087502705,154.6709425,10.36,'11111222,11111222,11111222' 
TABS,ioos:station:wmo:42043:1,2005-07-02T04:00:00Z,28.9818,-94.9186,4.0,7.68760691,153.501883,10.03,'11111222,11111222,11111222' 
TABS,ioos:station:wmo:42043:1,2005-07-02T04:30:00Z,28.9818,-94.9186,4.0,8.092688058,157.9359091,10.13,'11111222,11111222,11111222' 
TABS,ioos:station:wmo:42043:1,2005-07-02T05:00:00Z,28.9818,-94.9186,4.0,8.049273259,157.194232,10.26,'11111222,11111222,11111222' 
TABS,ioos:station:wmo:42043:1,2005-07-02T05:30:00Z,28.9818,-94.9186,4.0,7.891628476,163.5861251,9.53,'11111222,11111222,11111222' 
TABS,ioos:station:wmo:42043:1,2005-07-02T06:00:00Z,28.9818,-94.9186,4.0,7.695466198,159.5400691,9.73,'11111222,11111222,11111222' 
TABS,ioos:station:wmo:42043:1,2005-07-02T06:30:00Z,28.9818,-94.9186,4.0,7.667398516,165.1121501,9.92,'11111222,11111222,11111222' 
TABS,ioos:station:wmo:42043:1,2005-07-02T07:00:00Z,28.9818,-94.9186,4.0,7.421334112,169.2051035,9.45,'11111222,11111222,11111222' 
TABS,ioos:station:wmo:42043:1,2005-07-02T07:30:00Z,28.9818,-94.9186,4.0,7.701597237,173.3642743,9.5,'11111222,11111222,11111222' 
TABS,ioos:station:wmo:42043:1,2005-07-02T08:00:00Z,28.9818,-94.9186,4.0,7.611051176,176.9122545,9.23,'11111222,11111222,11111222' 
TABS,ioos:station:wmo:42043:1,2005-07-02T08:30:00Z,28.9818,-94.9186,4.0,7.261762871,181.26272,9.25,'11111222,11111222,11111222' 
TABS,ioos:station:wmo:42043:1,2005-07-02T09:00:00Z,28.9818,-94.9186,4.0,6.240873336,184.6875993,7.96,'11111222,11111222,11111222' 
TABS,ioos:station:wmo:42043:1,2005-07-02T09:30:00Z,28.9818,-94.9186,4.0,5.774859306,193.7235962,7.68,'11111222,11111222,11111222' 
TABS,ioos:station:wmo:42043:1,2005-07-02T10:00:00Z,28.9818,-94.9186,4.0,5.543663049,192.6074607,6.94,'11111222,11111222,11111222' 
TABS,ioos:station:wmo:42043:1,2005-07-02T10:30:00Z,28.9818,-94.9186,4.0,5.830823269,188.2831559,7.52,'11111222,11111222,11111222' 
TABS,ioos:station:wmo:42043:1,2005-07-02T11:00:00Z,28.9818,-94.9186,4.0,6.217370827,192.9188171,7.6,'11111222,11111222,11111222' 
TABS,ioos:station:wmo:42043:1,2005-07-02T11:30:00Z,28.9818,-94.9186,4.0,6.619796069,183.1176196,8.19,'11111222,11111222,11111222' 
TABS,ioos:station:wmo:42043:1,2005-07-02T12:00:00Z,28.9818,-94.9186,4.0,6.796477029,192.3186802,8.16,'11111222,11111222,11111222' 
TABS,ioos:station:wmo:42043:1,2005-07-02T12:30:00Z,28.9818,-94.9186,4.0,6.737150733,189.7421357,8.21,'11111222,11111222,11111222' 
TABS,ioos:station:wmo:42043:1,2005-07-02T13:00:00Z,28.9818,-94.9186,4.0,5.990075125,179.7132564,7.74,'11111222,11111222,11111222' 
TABS,ioos:station:wmo:42043:1,2005-07-02T13:30:00Z,28.9818,-94.9186,4.0,5.399268469,186.9146137,6.57,'11111222,11111222,11111222' 
TABS,ioos:station:wmo:42043:1,2005-07-02T14:00:00Z,28.9818,-94.9186,4.0,4.966256135,185.8944663,6.38,'11111222,11111222,11111222' 
TABS,ioos:station:wmo:42043:1,2005-07-02T14:30:00Z,28.9818,-94.9186,4.0,4.8900409,180.2345472,6.46,'11111222,11111222,11111222' 
TABS,ioos:station:wmo:42043:1,2005-07-02T15:00:00Z,28.9818,-94.9186,4.0,5.268785439,185.9921264,6.41,'11111222,11111222,11111222' 
TABS,ioos:station:wmo:42043:1,2005-07-02T15:30:00Z,28.9818,-94.9186,4.0,4.776777156,184.803685,6.05,'11111222,11111222,11111222' 
TABS,ioos:station:wmo:42043:1,2005-07-02T16:00:00Z,28.9818,-94.9186,4.0,4.67248328,186.7601778,6.3,'11111222,11111222,11111222' 
TABS,ioos:station:wmo:42043:1,2005-07-02T16:30:00Z,28.9818,-94.9186,4.0,4.570043763,179.7494653,5.85,'11111222,11111222,11111222' 
TABS,ioos:station:wmo:42043:1,2005-07-02T17:00:00Z,28.9818,-94.9186,4.0,4.814997404,174.1593866,6.06,'11111222,11111222,11111222' 
TABS,ioos:station:wmo:42043:1,2005-07-02T17:30:00Z,28.9818,-94.9186,4.0,4.927402967,176.859088,6.27,'11111222,11111222,11111222' 
TABS,ioos:station:wmo:42043:1,2005-07-02T18:00:00Z,28.9818,-94.9186,4.0,4.732377838,178.1838325,6.56,'11111222,11111222,11111222' 
TABS,ioos:station:wmo:42043:1,2005-07-02T18:30:00Z,28.9818,-94.9186,4.0,4.867124408,172.9190148,6.49,'11111222,11111222,11111222' 
TABS,ioos:station:wmo:42043:1,2005-07-02T19:00:00Z,28.9818,-94.9186,4.0,4.770167712,180.4806658,6.01,'11111222,11111222,11111222' 
TABS,ioos:station:wmo:42043:1,2005-07-02T19:30:00Z,28.9818,-94.9186,4.0,5.212446642,176.0399079,7.11,'11111222,11111222,11111222' 
TABS,ioos:station:wmo:42043:1,2005-07-02T20:00:00Z,28.9818,-94.9186,4.0,5.989624362,162.1098087,7.73,'11111222,11111222,11111222' 
TABS,ioos:station:wmo:42043:1,2005-07-02T20:30:00Z,28.9818,-94.9186,4.0,7.308652407,156.4516872,8.8,'11111222,11111222,11111222' 
TABS,ioos:station:wmo:42043:1,2005-07-02T21:00:00Z,28.9818,-94.9186,4.0,6.949712224,153.3246122,8.41,'11111222,11111222,11111222' 
TABS,ioos:station:wmo:42043:1,2005-07-02T21:30:00Z,28.9818,-94.9186,4.0,7.517672512,153.5374741,9.39,'11111222,11111222,11111222' 
TABS,ioos:station:wmo:42043:1,2005-07-02T22:00:00Z,28.9818,-94.9186,4.0,7.082654869,150.7570991,8.88,'11111222,11111222,11111222' 
TABS,ioos:station:wmo:42043:1,2005-07-02T22:30:00Z,28.9818,-94.9186,4.0,7.492462879,152.2381732,9.56,'11111222,11111222,11111222' 
TABS,ioos:station:wmo:42043:1,2005-07-02T23:00:00Z,28.9818,-94.9186,4.0,7.415288261,154.0917773,9.79,'11111222,11111222,11111222' 
TABS,ioos:station:wmo:42043:1,2005-07-02T23:30:00Z,28.9818,-94.9186,4.0,7.335018746,157.9812746,9.49,'11111222,11111222,11111222' 
TABS,ioos:station:wmo:42043:1,2005-07-03T00:00:00Z,28.9818,-94.9186,4.0,7.777840317,155.5441197,9.57,'11111222,11111222,11111222' 
TABS,ioos:station:wmo:42043:1,2005-07-03T00:30:00Z,28.9818,-94.9186,4.0,7.665252768,153.3349374,9.5,'11111222,11111222,11111222' 
TABS,ioos:station:wmo:42043:1,2005-07-03T01:00:00Z,28.9818,-94.9186,4.0,7.625516376,154.1072803,9.49,'11111222,11111222,11111222' 
TABS,ioos:station:wmo:42043:1,2005-07-03T01:30:00Z,28.9818,-94.9186,4.0,7.853438737,152.8805542,9.49,'11111222,11111222,11111222' 
TABS,ioos:station:wmo:42043:1,2005-07-03T02:00:00Z,28.9818,-94.9186,4.0,7.795261381,152.9092865,9.63,'11111222,11111222,11111222' 
TABS,ioos:station:wmo:42043:1,2005-07-03T02:30:00Z,28.9818,-94.9186,4.0,7.422182967,155.9907496,9.33,'11111222,11111222,11111222' 
TABS,ioos:station:wmo:42043:1,2005-07-03T03:00:00Z,28.9818,-94.9186,4.0,7.204679035,153.1862661,8.72,'11111222,11111222,11111222' 
TABS,ioos:station:wmo:42043:1,2005-07-03T03:30:00Z,28.9818,-94.9186,4.0,7.376028742,152.2887666,9.47,'11111222,11111222,11111222' 
TABS,ioos:station:wmo:42043:1,2005-07-03T04:00:00Z,28.9818,-94.9186,4.0,7.68407444,156.9387449,9.18,'11111222,11111222,11111222' 
TABS,ioos:station:wmo:42043:1,2005-07-03T04:30:00Z,28.9818,-94.9186,4.0,8.106121144,154.8894343,9.81,'11111222,11111222,11111222' 
TABS,ioos:station:wmo:42043:1,2005-07-03T05:00:00Z,28.9818,-94.9186,4.0,7.920934288,150.0041823,9.93,'11111222,11111222,11111222' 
TABS,ioos:station:wmo:42043:1,2005-07-03T05:30:00Z,28.9818,-94.9186,4.0,8.134992317,153.8131971,9.65,'11111222,11111222,11111222' 
TABS,ioos:station:wmo:42043:1,2005-07-03T06:00:00Z,28.9818,-94.9186,4.0,8.660975696,155.8026853,10.31,'11111222,11111222,11111222' 
TABS,ioos:station:wmo:42043:1,2005-07-03T06:30:00Z,28.9818,-94.9186,4.0,7.425321542,155.7478936,9.79,'11111222,11111222,11111222' 
TABS,ioos:station:wmo:42043:1,2005-07-03T07:00:00Z,28.9818,-94.9186,4.0,6.445463521,155.8211599,8.34,'11111222,11111222,11111222' 
TABS,ioos:station:wmo:42043:1,2005-07-03T07:30:00Z,28.9818,-94.9186,4.0,7.524945183,155.0017749,9.65,'11111222,11111222,11111222' 
TABS,ioos:station:wmo:42043:1,2005-07-03T08:00:00Z,28.9818,-94.9186,4.0,7.210270453,148.3823704,9.52,'11111222,11111222,11111222' 
TABS,ioos:station:wmo:42043:1,2005-07-03T08:30:00Z,28.9818,-94.9186,4.0,5.972244134,143.6484634,7.8,'11111222,11111222,11111222' 
TABS,ioos:station:wmo:42043:1,2005-07-03T09:00:00Z,28.9818,-94.9186,4.0,6.268341088,148.7700369,8.38,'11111222,11111222,11111222' 
TABS,ioos:station:wmo:42043:1,2005-07-03T09:30:00Z,28.9818,-94.9186,4.0,7.426472918,154.9880363,9.46,'11111222,11111222,11111222' 
TABS,ioos:station:wmo:42043:1,2005-07-03T10:00:00Z,28.9818,-94.9186,4.0,6.625896166,151.8107972,8.63,'11111222,11111222,11111222' 
TABS,ioos:station:wmo:42043:1,2005-07-03T10:30:00Z,28.9818,-94.9186,4.0,5.86122854,155.1841634,7.74,'11111222,11111222,11111222' 
TABS,ioos:station:wmo:42043:1,2005-07-03T11:00:00Z,28.9818,-94.9186,4.0,5.77488528,154.6776897,7.48,'11111222,11111222,11111222' 
TABS,ioos:station:wmo:42043:1,2005-07-03T11:30:00Z,28.9818,-94.9186,4.0,6.77826674,158.8110287,8.07,'11111222,11111222,11111222' 
TABS,ioos:station:wmo:42043:1,2005-07-03T12:00:00Z,28.9818,-94.9186,4.0,6.350590524,153.8387052,7.74,'11111222,11111222,11111222' 
TABS,ioos:station:wmo:42043:1,2005-07-03T12:30:00Z,28.9818,-94.9186,4.0,5.949596625,171.8837462,7.52,'11111222,11111222,11111222' 
TABS,ioos:station:wmo:42043:1,2005-07-03T13:00:00Z,28.9818,-94.9186,4.0,6.433863536,173.305997,8.01,'11111222,11111222,11111222' 
TABS,ioos:station:wmo:42043:1,2005-07-03T13:30:00Z,28.9818,-94.9186,4.0,6.179919093,164.322289,7.88,'11111222,11111222,11111222' 
TABS,ioos:station:wmo:42043:1,2005-07-03T14:00:00Z,28.9818,-94.9186,4.0,5.37584412,168.0841345,6.69,'11111222,11111222,11111222' 
TABS,ioos:station:wmo:42043:1,2005-07-03T14:30:00Z,28.9818,-94.9186,4.0,6.039635751,165.2277108,7.43,'11111222,11111222,11111222' 
TABS,ioos:station:wmo:42043:1,2005-07-03T15:00:00Z,28.9818,-94.9186,4.0,4.406143438,162.8401589,5.92,'11111222,11111222,11111222' 
TABS,ioos:station:wmo:42043:1,2005-07-03T15:30:00Z,28.9818,-94.9186,4.0,3.757193101,154.4582492,5.12,'11111222,11111222,11111222' 
TABS,ioos:station:wmo:42043:1,2005-07-03T16:00:00Z,28.9818,-94.9186,4.0,3.170394297,137.3011353,4.39,'11111222,11111222,11111222' 
TABS,ioos:station:wmo:42043:1,2005-07-03T16:30:00Z,28.9818,-94.9186,4.0,3.176727876,141.9038535,3.99,'11111222,11111222,11111222' 
TABS,ioos:station:wmo:42043:1,2005-07-03T17:00:00Z,28.9818,-94.9186,4.0,3.03389189,121.3851508,4.13,'11111222,11111222,11111222' 
TABS,ioos:station:wmo:42043:1,2005-07-03T17:30:00Z,28.9818,-94.9186,4.0,3.526953359,112.8576618,4.66,'11111222,11111222,11111222' 
TABS,ioos:station:wmo:42043:1,2005-07-03T18:00:00Z,28.9818,-94.9186,4.0,4.462566526,123.7616286,5.84,'11111222,11111222,11111222' 
TABS,ioos:station:wmo:42043:1,2005-07-03T18:30:00Z,28.9818,-94.9186,4.0,4.29920923,135.0003157,5.52,'11111222,11111222,11111222' 
TABS,ioos:station:wmo:42043:1,2005-07-03T19:00:00Z,28.9818,-94.9186,4.0,4.492137576,133.2864691,5.59,'11111222,11111222,11111222' 
TABS,ioos:station:wmo:42043:1,2005-07-03T19:30:00Z,28.9818,-94.9186,4.0,4.546053233,143.4076745,5.56,'11111222,11111222,11111222' 
TABS,ioos:station:wmo:42043:1,2005-07-03T20:00:00Z,28.9818,-94.9186,4.0,4.784746597,140.0874086,6.49,'11111222,11111222,11111222' 
TABS,ioos:station:wmo:42043:1,2005-07-03T20:30:00Z,28.9818,-94.9186,4.0,4.763863978,139.0859229,6.23,'11111222,11111222,11111222' 
TABS,ioos:station:wmo:42043:1,2005-07-03T21:00:00Z,28.9818,-94.9186,4.0,5.545520715,136.4616224,7.27,'11111222,11111222,11111222' 
TABS,ioos:station:wmo:42043:1,2005-07-03T21:30:00Z,28.9818,-94.9186,4.0,5.918521775,135.2056755,7.45,'11111222,11111222,11111222' 
TABS,ioos:station:wmo:42043:1,2005-07-03T22:00:00Z,28.9818,-94.9186,4.0,6.262754985,129.1030639,8.19,'11111222,11111222,11111222' 
TABS,ioos:station:wmo:42043:1,2005-07-03T22:30:00Z,28.9818,-94.9186,4.0,6.122883308,125.8969926,7.78,'11111222,11111222,11111222' 
TABS,ioos:station:wmo:42043:1,2005-07-03T23:00:00Z,28.9818,-94.9186,4.0,5.645759471,128.9612749,7.33,'11111222,11111222,11111222' 
TABS,ioos:station:wmo:42043:1,2005-07-03T23:30:00Z,28.9818,-94.9186,4.0,6.352204342,131.8735609,8.29,'11111222,11111222,11111222' 
TABS,ioos:station:wmo:42043:1,2005-07-04T00:00:00Z,28.9818,-94.9186,4.0,6.437740287,130.0224089,8.71,'11111222,11111222,11111222' 
TABS,ioos:station:wmo:42043:1,2005-07-04T00:30:00Z,28.9818,-94.9186,4.0,6.481543026,129.2399785,7.92,'11111222,11111222,11111222' 
TABS,ioos:station:wmo:42043:1,2005-07-04T01:00:00Z,28.9818,-94.9186,4.0,6.797536318,129.5684725,9.1,'11111222,11111222,11111222' 
TABS,ioos:station:wmo:42043:1,2005-07-04T01:30:00Z,28.9818,-94.9186,4.0,6.811791248,131.0121716,8.67,'11111222,11111222,11111222' 
TABS,ioos:station:wmo:42043:1,2005-07-04T02:00:00Z,28.9818,-94.9186,4.0,7.078545048,137.6340588,8.9,'11111222,11111222,11111222' 
TABS,ioos:station:wmo:42043:1,2005-07-04T02:30:00Z,28.9818,-94.9186,4.0,7.144144455,136.4749274,9.25,'11111222,11111222,11111222' 
TABS,ioos:station:wmo:42043:1,2005-07-04T03:00:00Z,28.9818,-94.9186,4.0,6.992138443,126.509681,9.12,'11111222,11111222,11111222' 
TABS,ioos:station:wmo:42043:1,2005-07-04T03:30:00Z,28.9818,-94.9186,4.0,6.853473572,133.7588087,8.5,'11111222,11111222,11111222' 
TABS,ioos:station:wmo:42043:1,2005-07-04T04:00:00Z,28.9818,-94.9186,4.0,7.005719092,138.4143111,8.89,'11111222,11111222,11111222' 
TABS,ioos:station:wmo:42043:1,2005-07-04T04:30:00Z,28.9818,-94.9186,4.0,7.983163533,138.4025298,9.52,'11111222,11111222,11111222' 
TABS,ioos:station:wmo:42043:1,2005-07-04T05:00:00Z,28.9818,-94.9186,4.0,7.933788502,135.2045774,9.37,'11111222,11111222,11111222' 
TABS,ioos:station:wmo:42043:1,2005-07-04T05:30:00Z,28.9818,-94.9186,4.0,8.354190565,133.3997531,10.36,'11111222,11111222,11111222' 
TABS,ioos:station:wmo:42043:1,2005-07-04T06:00:00Z,28.9818,-94.9186,4.0,7.949138318,136.0197036,9.44,'11111222,11111222,11111222' 
TABS,ioos:station:wmo:42043:1,2005-07-04T06:30:00Z,28.9818,-94.9186,4.0,7.877626546,135.6174801,9.81,'11111222,11111222,11111222' 
TABS,ioos:station:wmo:42043:1,2005-07-04T07:00:00Z,28.9818,-94.9186,4.0,7.527296992,140.2824447,9.08,'11111222,11111222,11111222' 
TABS,ioos:station:wmo:42043:1,2005-07-04T07:30:00Z,28.9818,-94.9186,4.0,7.264227419,137.901706,9.1,'11111222,11111222,11111222' 
TABS,ioos:station:wmo:42043:1,2005-07-04T08:00:00Z,28.9818,-94.9186,4.0,7.191731363,146.111356,8.99,'11111222,11111222,11111222' 
TABS,ioos:station:wmo:42043:1,2005-07-04T08:30:00Z,28.9818,-94.9186,4.0,6.792481137,137.0286887,9.09,'11111222,11111222,11111222' 
TABS,ioos:station:wmo:42043:1,2005-07-04T09:00:00Z,28.9818,-94.9186,4.0,6.733513199,140.4235216,8.67,'11111222,11111222,11111222' 
TABS,ioos:station:wmo:42043:1,2005-07-04T09:30:00Z,28.9818,-94.9186,4.0,6.944724617,140.2581126,9.03,'11111222,11111222,11111222' 
TABS,ioos:station:wmo:42043:1,2005-07-04T10:00:00Z,28.9818,-94.9186,4.0,6.740118693,139.6940614,8.85,'11111222,11111222,11111222' 
TABS,ioos:station:wmo:42043:1,2005-07-04T10:30:00Z,28.9818,-94.9186,4.0,6.920007225,143.0476019,8.99,'11111222,11111222,11111222' 
TABS,ioos:station:wmo:42043:1,2005-07-04T11:00:00Z,28.9818,-94.9186,4.0,6.308890552,144.0931078,7.8,'11111222,11111222,11111222' 
TABS,ioos:station:wmo:42043:1,2005-07-04T11:30:00Z,28.9818,-94.9186,4.0,5.577544262,146.1107847,7.26,'11111222,11111222,11111222' 
TABS,ioos:station:wmo:42043:1,2005-07-04T12:00:00Z,28.9818,-94.9186,4.0,6.055683281,138.2803379,8.03,'11111222,11111222,11111222' 
TABS,ioos:station:wmo:42043:1,2005-07-04T12:30:00Z,28.9818,-94.9186,4.0,5.436543019,137.6840846,7.03,'11111222,11111222,11111222' 
TABS,ioos:station:wmo:42043:1,2005-07-04T13:00:00Z,28.9818,-94.9186,4.0,5.587289146,136.1605752,7.47,'11111222,11111222,11111222' 
TABS,ioos:station:wmo:42043:1,2005-07-04T13:30:00Z,28.9818,-94.9186,4.0,5.354147925,133.7138398,6.69,'11111222,11111222,11111222' 
TABS,ioos:station:wmo:42043:1,2005-07-04T14:00:00Z,28.9818,-94.9186,4.0,5.749791301,130.8394054,7.22,'11111222,11111222,11111222' 
TABS,ioos:station:wmo:42043:1,2005-07-04T14:30:00Z,28.9818,-94.9186,4.0,5.948596473,131.8658278,7.6,'11111222,11111222,11111222' 
TABS,ioos:station:wmo:42043:1,2005-07-04T15:00:00Z,28.9818,-94.9186,4.0,5.298301615,131.6338629,7.17,'11111222,11111222,11111222' 
TABS,ioos:station:wmo:42043:1,2005-07-04T15:30:00Z,28.9818,-94.9186,4.0,5.588962337,131.5912956,7.31,'11111222,11111222,11111222' 
TABS,ioos:station:wmo:42043:1,2005-07-04T16:00:00Z,28.9818,-94.9186,4.0,5.854912467,134.7235273,7.45,'11111222,11111222,11111222' 
TABS,ioos:station:wmo:42043:1,2005-07-04T16:30:00Z,28.9818,-94.9186,4.0,6.408244689,130.9507435,8.07,'11111222,11111222,11111222' 
TABS,ioos:station:wmo:42043:1,2005-07-04T17:00:00Z,28.9818,-94.9186,4.0,5.630319707,126.2596447,6.99,'11111222,11111222,11111222' 
TABS,ioos:station:wmo:42043:1,2005-07-04T17:30:00Z,28.9818,-94.9186,4.0,5.483256332,123.9222572,6.9,'11111222,11111222,11111222' 
TABS,ioos:station:wmo:42043:1,2005-07-04T18:00:00Z,28.9818,-94.9186,4.0,5.636000355,126.8499003,6.75,'11111222,11111222,11111222' 
TABS,ioos:station:wmo:42043:1,2005-07-04T18:30:00Z,28.9818,-94.9186,4.0,5.005486989,128.2668519,6.19,'11111222,11111222,11111222' 